Location: Abraham Lincoln Continuation High School
(33.9711°N, 117.3662°W)
Time: 01:09:37
(UTC+00:00)

Iridium 4 Rocket - Pass Details

Date: 25 January 2021
Orbit: 583 x 906 km, 86.9° (Epoch: 03 March)

Event Time Altitude Azimuth Distance (km) Brightness Sun altitude
Rises 01:48:37 0° 11° (N) 3,380 6.5 -7.8°
Reaches altitude 10° 01:51:27 10° 23° (NNE) 2,391 5.7 -8.4°
Maximum altitude 01:55:58 28° 81° (E) 1,417 4.3 -9.3°
Drops below altitude 10° 02:00:09 10° 139° (SE) 2,197 5.6 -10.1°
Sets 02:02:38 0° 151° (SSE) 3,056 6.5 -10.6°
